{"data":{"norad_id":64514,"intl_designator":"2025-134Q","name":"KUIPER-00054","alt_names":[],"object_type":"PAYLOAD","status":"ACTIVE","operator":null,"country":"US","launch_date":"2025-06-23","launch_site_code":"AFETR","launch_vehicle":null,"mission":null,"orbit_class":"UNKNOWN","rcs_meters":null,"size_class":null,"mass_kg":null,"dimensions":null,"purposes":[],"wikipedia_slug":null,"has_3d_model":false,"image_url":null,"decayed_at":null,"tle_current":{"epoch":"2026-05-25T05:24:25.195968Z","epoch_age_seconds":48963,"freshness":"FRESH","line1":"1 64514U 25134Q   26145.22529162  .00003349  00000+0  46797-3 0  9996","line2":"2 64514  51.8967 239.6147 0000311 115.3251 244.7744 14.79943781 51611","mean_motion":14.79943781,"eccentricity":3.11e-5,"inclination_deg":51.8967,"raan_deg":239.6147,"arg_perigee_deg":115.3251,"mean_anomaly_deg":244.7744,"bstar":0.00046797,"rev_number":5161,"period_min":97.300993354423,"perigee_km":629.28365887578,"apogee_km":629.71953399648,"semimajor_km":7007.6385964361,"source":"CELESTRAK","updated_at":"2026-05-25T13:38:04.574936Z"}}}